Date,TemperatureHighF,TemperatureAvgF,TemperatureLowF,DewpointHighF,DewpointAvgF,DewpointLowF,HumidityHigh,HumidityAvg,HumidityLow,PressureMaxIn,PressureMinIn,WindSpeedMaxMPH,WindSpeedAvgMPH,GustSpeedMaxMPH,PrecipitationSumIn
2013-2-1,52,42,30,30,21,8,65,47,19,30.12,29.88,7,2,0,0.00
2013-2-2,57,40,26,36,19,12,68,46,20,30.14,29.85,4,1,0,0.00
2013-2-3,61,48,37,38,33,26,87,60,32,29.85,29.68,8,2,0,0.00
2013-2-4,52,41,32,33,29,26,92,64,36,29.91,29.79,3,0,0,0.00
2013-2-5,67,49,34,48,40,31,97,73,44,29.82,29.73,6,1,0,0.00
2013-2-6,71,54,40,50,40,30,99,67,25,29.94,29.79,4,1,0,0.00
2013-2-7,50,48,45,49,45,36,99,92,57,29.94,29.62,13,2,0,3.08
2013-2-8,62,49,42,50,46,42,99,89,63,29.88,29.62,5,1,0,0.01
2013-2-9,63,46,31,45,32,24,99,62,24,30.09,29.88,5,1,0,0.00
2013-2-10,67,53,39,56,43,29,99,70,50,30.17,29.91,6,2,0,0.22
2013-2-11,68,59,54,64,59,54,99,98,85,29.98,29.82,4,1,0,1.23
2013-2-12,66,55,49,54,50,42,99,86,42,29.90,29.65,4,1,0,0.95
2013-2-13,58,51,46,56,49,42,99,94,77,29.69,29.49,6,2,0,0.07
2013-2-14,54,44,36,42,39,36,99,83,57,29.87,29.67,3,1,0,0.00
2013-2-15,63,46,32,43,36,32,99,75,32,29.91,29.74,4,1,0,0.00
2013-2-16,48,41,33,40,32,15,98,73,35,29.85,29.63,9,2,0,0.15
2013-2-17,47,35,26,21,16,10,74,47,23,30.09,29.86,6,2,0,0.00
2013-2-18,57,41,25,28,23,18,81,53,26,30.20,30.02,4,1,0,0.00
2013-2-19,53,45,38,51,42,28,99,88,61,30.02,29.78,4,1,0,0.29
2013-2-20,58,43,28,36,29,21,99,63,25,29.97,29.84,5,1,0,0.00
2013-2-21,66,49,33,38,30,22,80,51,25,30.00,29.84,5,1,0,0.00
2013-2-22,51,43,40,43,40,33,99,90,52,29.98,29.86,5,2,0,0.64
2013-2-23,46,43,39,46,43,39,99,99,99,29.86,29.62,4,1,0,0.71
2013-2-24,68,52,44,49,44,38,99,77,33,29.78,29.65,5,1,0,0.00
2013-2-25,49,45,40,44,37,31,96,73,52,29.87,29.73,9,2,0,0.00
2013-2-26,58,47,38,56,46,38,99,97,89,29.73,29.35,6,2,0,0.51
2013-2-27,61,49,40,46,40,37,99,73,45,29.66,29.52,5,2,0,0.00
2013-2-28,55,47,39,41,34,28,87,63,44,29.70,29.56,5,2,0,0.00